Find STARLINK-38034

NORAD ID: 100026 Int'l Des: 2026-160AB Owner: SPXS Country: US Constellation: starlink operational

現在のビュー

3D地球を読み込み中...

About STARLINK-38034

STARLINK-38034 (NORAD 100026) is a starlink constellation satellite (v2 mini) launched Jul 14, 2026 by SPXS of US. with a mass of 575.00 kg.

次回通過

Passes for default location (London). Set your location on the main map for personalized predictions.

高度履歴

Loading altitude history...

軌道要素

1 A0026U 26160AB 26220.70752444 .00103256 00000-0 74970-3 0 9995
2 A0026 70.0011 316.1501 0003223 293.8936 66.1924 15.72923714 5257
Epoch: Aug 8, 2026 • Age: 39 hours

現在のステータス

高度 352.5 km
遠地点 / 近地点 N/A
速度 7.70 km/s
衛星直下点 8.07°N, 51.93°E
打ち上げ日 Jul 14, 2026
運用期間 27 days
タイプ internet

技術仕様

分類 Payload
質量 575.00 kg
乾燥質量 530.00 kg
総質量 575.00 kg
長さ 0.30 m
直径 4.10 m
スパン 29.00 m
形状 Box + pan
製造者 SPXS
バスタイプ Starlink V2MO
フェーズステータス In Orbit
所有者/国 SPXS/US

Most Searched